Date String (YYYY-MM-DD hh:mm:ss) UTC,Instrument flags,Ambient pressure (hPa),Sample flow (lpm),Bypass flow (lpm),Sample temperature (°C),Ambient temperature (°C),ASC tube jacket temperature (°C),LED temperature (°C),Box temperature (°C),Sample RH (%),Span deviation,Mass concentration (μg/m³),Mass concentration (μg/m³),Mass concentration (μg/m³)
DateTimeUTC,F1_M11,P_M11,Q1_M11,Q2_M11,T1_M11,T2_M11,T3_M11,T4_M11,T5_M11,U1_M11,ZSPAN_M11,X2_M11,X0_M11,X1_M11
2022-01-26 16:00:00,,0824.0,5.00,0.00,22.5,22.0,00.0,31.5,24.1,07.6,0000.0,0004.25,0005.70,0004.14
2022-01-26 16:01:00,,0823.9,5.01,0.00,22.5,21.9,00.0,31.5,24.1,07.5,0000.0,0004.25,0005.71,0004.15
2022-01-26 16:02:00,,0824.0,5.00,0.00,22.5,21.9,00.0,31.5,24.1,07.6,0000.0,0004.25,0005.71,0004.14
2022-01-26 16:03:00,,0824.0,4.98,0.00,22.5,21.9,00.0,31.5,24.2,07.6,0000.0,0004.24,0005.74,0004.13
2022-01-26 16:04:00,,0824.0,5.03,0.00,22.5,21.9,00.0,31.5,24.2,07.6,0000.0,0004.26,0005.81,0004.13
2022-01-26 16:05:00,,0824.0,4.98,0.00,22.5,21.9,00.0,31.5,24.2,07.7,0000.0,0004.27,0005.83,0004.13
2022-01-26 16:06:00,,0824.0,5.00,0.00,22.4,21.8,00.0,31.5,24.1,07.7,0000.0,0004.27,0005.78,0004.14
2022-01-26 16:07:00,,0824.0,5.01,0.00,22.4,21.8,00.0,31.5,24.1,07.7,0000.0,0004.26,0005.73,0004.13
2022-01-26 16:08:00,,0824.0,5.01,0.00,22.4,21.8,00.0,31.5,24.1,07.7,0000.0,0004.24,0005.64,0004.12
2022-01-26 16:09:00,,0824.1,5.00,0.00,22.4,21.7,00.0,31.4,24.0,07.8,0000.0,0004.24,0005.63,0004.13
2022-01-26 16:10:00,,0824.1,5.00,0.00,22.4,21.7,00.0,31.4,24.0,07.8,0000.0,0004.25,0005.63,0004.14
2022-01-26 16:11:00,,0824.1,5.00,0.00,22.3,21.7,00.0,31.4,24.0,07.8,0000.0,0004.26,0005.64,0004.15
2022-01-26 16:12:00,,0824.0,5.00,0.00,22.3,21.7,00.0,31.4,24.0,07.9,0000.0,0004.28,0005.65,0004.16
2022-01-26 16:13:00,,0823.9,5.00,0.00,22.3,21.7,00.0,31.4,24.0,07.9,0000.0,0004.29,0005.69,0004.18
2022-01-26 16:14:00,,0823.9,5.00,0.00,22.3,21.8,00.0,31.4,24.1,07.9,0000.0,0004.29,0005.74,0004.19
2022-01-26 16:15:00,,0824.0,4.99,0.00,22.4,22.7,00.0,31.4,24.3,07.9,0000.0,0004.28,0005.68,0004.19
2022-01-26 16:16:00,,0824.0,5.01,0.00,22.6,23.7,00.0,31.5,24.7,07.8,0000.0,0004.29,0005.67,0004.20
2022-01-26 16:17:00,,0824.0,5.01,0.00,22.8,23.8,00.0,31.5,24.8,07.8,0000.0,0004.30,0005.71,0004.21
2022-01-26 16:18:00,,0824.1,5.00,0.00,22.8,23.5,00.0,31.5,24.8,07.7,0000.0,0004.33,0005.80,0004.23
2022-01-26 16:19:00,,0824.0,4.99,0.00,22.8,23.2,00.0,31.6,24.7,07.7,0000.0,0004.33,0005.81,0004.24
2022-01-26 16:20:00,,0824.0,5.01,0.00,22.8,23.0,00.0,31.6,24.6,07.7,0000.0,0004.34,0005.95,0004.24
2022-01-26 16:21:00,,0824.0,5.00,0.00,22.8,22.8,00.0,31.6,24.6,07.7,0000.0,0004.34,0006.41,0004.23
2022-01-26 16:22:00,,0824.0,5.00,0.00,22.8,22.6,00.0,31.6,24.5,07.7,0000.0,0004.34,0006.41,0004.23
2022-01-26 16:23:00,,0824.0,5.00,0.00,22.7,22.5,00.0,31.6,24.4,07.7,0000.0,0004.34,0006.38,0004.23
2022-01-26 16:24:00,,0824.1,4.99,0.00,22.7,22.3,00.0,31.6,24.4,07.8,0000.0,0004.35,0006.41,0004.24
2022-01-26 16:25:00,,0824.1,4.99,0.00,22.6,22.1,00.0,31.6,24.3,07.6,0000.0,0004.36,0006.32,0004.25
2022-01-26 16:26:00,,0824.0,5.00,0.00,22.6,22.0,00.0,31.6,24.2,07.7,0000.0,0004.35,0006.31,0004.25
2022-01-26 16:27:00,,0824.0,5.01,0.00,22.5,21.9,00.0,31.6,24.2,07.7,0000.0,0004.37,0006.30,0004.26
2022-01-26 16:28:00,,0824.0,5.00,0.00,22.5,21.8,00.0,31.6,24.2,07.7,0000.0,0004.38,0006.32,0004.27
2022-01-26 16:29:00,,0824.1,4.99,0.00,22.5,21.8,00.0,31.5,24.1,07.7,0000.0,0004.38,0006.39,0004.26
2022-01-26 16:30:00,,0824.1,5.00,0.00,22.4,21.7,00.0,31.5,24.1,07.7,0000.0,0004.37,0007.32,0004.26
2022-01-26 16:31:00,,0824.1,5.02,0.00,22.4,21.7,00.0,31.5,24.1,07.8,0000.0,0004.38,0007.30,0004.27
2022-01-26 16:32:00,,0824.1,4.99,0.00,22.4,21.8,00.0,31.5,24.2,07.8,0000.0,0004.38,0006.81,0004.27
2022-01-26 16:33:00,,0824.1,5.00,0.00,22.5,21.8,00.0,31.5,24.2,07.8,0000.0,0004.37,0006.79,0004.27
2022-01-26 16:34:00,,0824.1,5.00,0.00,22.5,21.9,00.0,31.5,24.2,07.8,0000.0,0004.37,0007.47,0004.27
2022-01-26 16:35:00,,0824.1,5.00,0.00,22.5,21.9,00.0,31.5,24.3,07.8,0000.0,0004.36,0007.73,0004.26
2022-01-26 16:36:00,,0824.1,5.01,0.00,22.5,21.9,00.0,31.5,24.3,07.9,0000.0,0004.37,0007.75,0004.27
2022-01-26 16:37:00,,0824.1,5.00,0.00,22.5,21.9,00.0,31.5,24.3,07.9,0000.0,0004.39,0007.78,0004.28
2022-01-26 16:38:00,,0824.1,4.99,0.00,22.5,21.9,00.0,31.5,24.2,07.9,0000.0,0004.39,0007.83,0004.28
2022-01-26 16:39:00,,0824.1,5.00,0.00,22.5,21.9,00.0,31.5,24.2,07.9,0000.0,0004.38,0007.86,0004.27
2022-01-26 16:40:00,,0824.1,5.00,0.00,22.5,21.8,00.0,31.5,24.2,07.9,0000.0,0004.39,0008.56,0004.28
2022-01-26 16:41:00,,0824.1,5.00,0.00,22.4,21.8,00.0,31.5,24.1,07.9,0000.0,0004.42,0008.17,0004.29
2022-01-26 16:42:00,,0824.1,5.01,0.00,22.4,21.8,00.0,31.5,24.1,07.9,0000.0,0004.44,0008.19,0004.30
2022-01-26 16:43:00,,0824.2,5.00,0.00,22.4,21.7,00.0,31.4,24.1,08.0,0000.0,0004.46,0008.22,0004.32
2022-01-26 16:44:00,,0824.2,4.99,0.00,22.4,21.7,00.0,31.4,24.1,08.0,0000.0,0004.48,0008.22,0004.34
2022-01-26 16:45:00,,0824.2,5.00,0.00,22.4,21.7,00.0,31.4,24.0,08.0,0000.0,0004.48,0007.84,0004.34
2022-01-26 16:46:00,,0824.3,5.02,0.00,22.4,21.7,00.0,31.4,24.1,08.0,0000.0,0004.49,0007.51,0004.35
2022-01-26 16:47:00,,0824.3,5.00,0.00,22.3,21.7,00.0,31.4,24.1,08.1,0000.0,0004.51,0007.55,0004.37
2022-01-26 16:48:00,,0824.3,5.00,0.00,22.4,21.7,00.0,31.4,24.1,08.1,0000.0,0004.54,0007.59,0004.38
2022-01-26 16:49:00,,0824.3,5.00,0.00,22.4,21.7,00.0,31.4,24.1,08.1,0000.0,0004.55,0007.58,0004.39
2022-01-26 16:50:00,,0824.3,4.98,0.00,22.4,21.7,00.0,31.4,24.1,08.0,0000.0,0004.54,0007.54,0004.37
2022-01-26 16:51:00,,0824.3,5.01,0.00,22.4,21.7,00.0,31.4,24.1,08.0,0000.0,0004.52,0006.53,0004.35
2022-01-26 16:52:00,,0824.3,5.00,0.00,22.4,21.8,00.0,31.4,24.2,08.0,0000.0,0004.50,0006.17,0004.33
2022-01-26 16:53:00,,0824.3,4.98,0.00,22.4,21.8,00.0,31.4,24.2,08.0,0000.0,0004.48,0006.04,0004.33
2022-01-26 16:54:00,,0824.4,5.01,0.00,22.4,21.8,00.0,31.4,24.2,08.0,0000.0,0004.48,0006.07,0004.33
2022-01-26 16:55:00,,0824.4,5.00,0.00,22.5,21.8,00.0,31.4,24.2,08.1,0000.0,0004.50,0006.14,0004.34
2022-01-26 16:56:00,,0824.4,5.01,0.00,22.5,21.9,00.0,31.4,24.2,08.0,0000.0,0004.50,0006.15,0004.34
2022-01-26 16:57:00,,0824.4,5.00,0.00,22.5,21.9,00.0,31.4,24.3,08.0,0000.0,0004.48,0006.12,0004.33
2022-01-26 16:58:00,,0824.3,4.99,0.00,22.6,22.0,00.0,31.4,24.3,08.0,0000.0,0004.46,0006.06,0004.31
2022-01-26 16:59:00,,0824.3,5.00,0.00,22.6,22.0,00.0,31.4,24.3,08.0,0000.0,0004.41,0005.95,0004.28
